This is the latest recevied weather packets stored in our database for station/object K0JRF-13. If no packets are shown the sender has not sent any weather packets the latest 10 day(s).
| Time | Temp. | Humidity | Pressure | Rain* | Wind** | Luminosity | Snow |
|---|---|---|---|---|---|---|---|
| 1788016792 | 22.22° C | 49% | 1024 hPa | 0 mm | - | - | - |
| 1788016193 | 22.22° C | 48% | 1024 hPa | 0 mm | - | - | - |
| 1788015592 | 22.22° C | 53% | 1024 hPa | 0 mm | - | - | - |
| 1788014992 | 21.67° C | 54% | 1024 hPa | 0 mm | - | - | - |
| 1788014392 | 21.67° C | 54% | 1024 hPa | 0 mm | - | - | - |
| 1788013792 | 21.11° C | 56% | 1023.7 hPa | 0 mm | - | - | - |
| 1788013192 | 21.11° C | 57% | 1024 hPa | 0 mm | - | - | - |
| 1788012592 | 20° C | 57% | 1024 hPa | 0 mm | - | - | - |
| 1788011992 | 20° C | 57% | 1024 hPa | 0 mm | - | - | - |
| 1788011392 | 18.89° C | 60% | 1023.7 hPa | 0 mm | - | - | - |
| 1788010793 | 18.89° C | 61% | 1023.4 hPa | 0 mm | - | - | - |
| 1788010192 | 18.33° C | 62% | 1023.4 hPa | 0 mm | - | - | - |
| 1788009592 | 17.78° C | 63% | 1023.7 hPa | 0 mm | - | - | - |
| 1788008992 | 16.67° C | 67% | 1023.7 hPa | 0 mm | - | - | - |
| 1788008393 | 16.67° C | 67% | 1023.7 hPa | 0 mm | - | - | - |
| 1788007792 | 17.22° C | 69% | 1023.4 hPa | 0 mm | - | - | - |
| 1788007192 | 16.67° C | 73% | 1023.7 hPa | 0 mm | - | - | - |
| 1788006592 | 15° C | 77% | 1023.4 hPa | 0 mm | - | - | - |
| 1788005994 | 14.44° C | 78% | 1023.4 hPa | 0 mm | - | - | - |
| 1788005392 | 13.89° C | 78% | 1023.4 hPa | 0 mm | - | - | - |
| 1788004792 | 13.89° C | 81% | 1023.4 hPa | 0 mm | - | - | - |
| 1788004193 | 13.33° C | 82% | 1023.4 hPa | 0 mm | - | - | - |
| 1788003593 | 12.78° C | 83% | 1023.4 hPa | 0 mm | - | - | - |
| 1788002992 | 12.78° C | 84% | 1023.7 hPa | 0 mm | - | - | - |
| 1788002393 | 12.78° C | 83% | 1023.4 hPa | 0 mm | - | - | - |
* Rain latest hour (hover to see other rain measurements)
** Current wind speed in m/s (hover to see current wind gust speed)